Theta_e
324 323 323 322 321 322 323 324 325 326 327 339 344 346 344 345 345 344 342 342 343 344 344 346 347 347 347 345 345 344 344 343 342 341 343 344 345 344 343 343 340 338 338 342
320 322 322 322 322 323 323 324 324 325 327 336 344 347 345 343 345 345 343 341 341 341 342 344 346 346 346 345 344 345 344 344 342 341 342 343 344 344 342 341 340 335 341 339
321 323 323 323 324 324 322 323 324 324 328 343 341 342 338 342 345 346 344 342 342 343 343 345 345 344 346 345 344 345 344 344 342 341 343 344 343 342 342 340 337 335 341 338
321 322 324 324 323 322 323 323 324 324 325 325 341 337 326 332 340 343 345 344 344 343 343 344 343 343 343 345 344 344 344 344 341 342 342 343 342 342 342 340 337 338 340 339
324 325 324 324 324 322 324 324 323 325 324 324 325 326 324 337 334 338 342 344 345 344 343 343 342 341 342 344 343 344 344 343 340 342 342 342 342 343 341 339 340 341 343 343
322 323 323 322 323 323 324 323 320 319 320 322 322 325 325 327 331 336 342 343 345 345 342 342 342 341 342 344 343 343 344 343 340 342 343 342 343 343 342 338 338 341 344 344
322 323 323 325 325 323 320 319 323 324 321 322 319 326 324 325 325 331 338 343 344 345 343 343 342 342 342 343 344 343 344 343 338 342 342 342 342 341 340 336 339 340 343 343
323 324 323 323 323 325 322 320 322 326 323 322 319 324 323 325 332 336 334 339 343 344 344 343 342 342 342 343 343 343 343 343 337 339 340 338 341 342 339 341 341 340 340 338
321 323 323 323 323 325 324 320 319 317 315 319 318 319 322 327 331 336 337 338 340 343 345 343 341 343 342 343 343 342 343 343 338 337 338 337 339 341 339 341 341 337 334 338
322 322 322 324 324 323 322 318 320 314 322 322 319 322 323 323 328 330 335 337 339 340 343 341 340 344 343 342 343 343 344 343 342 336 337 337 337 338 339 342 342 341 341 341
324 319 322 324 324 324 318 318 313 314 314 318 319 320 318 326 326 325 328 334 337 339 340 341 343 344 343 343 343 343 343 343 344 338 336 339 337 337 339 343 345 343 340 343
327 320 323 325 322 321 320 320 313 317 319 314 315 319 319 324 327 329 332 335 337 337 338 341 344 344 344 344 344 344 344 343 344 344 336 337 342 339 339 343 344 344 344 342
328 324 328 327 324 326 328 328 315 312 312 316 319 322 319 321 324 329 331 333 339 338 337 338 340 341 343 343 343 343 343 344 344 345 343 337 337 342 340 340 341 343 343 343
327 323 328 329 325 327 331 332 329 322 325 321 318 324 323 323 323 325 330 331 336 340 338 337 338 339 341 343 344 344 344 344 344 345 345 342 336 337 338 339 340 339 341 341
317 320 327 326 326 326 329 332 332 329 326 328 328 321 324 322 322 328 330 331 334 337 339 337 342 341 341 343 344 344 344 345 344 345 345 345 340 337 339 339 338 338 339 339
316 317 323 321 319 323 328 327 330 330 330 323 323 324 322 338 336 332 332 332 334 335 338 337 342 342 341 342 343 344 345 345 345 345 346 346 344 339 338 338 338 338 339 340
315 316 318 319 319 320 320 319 321 324 328 328 329 327 337 338 336 335 336 336 336 335 336 338 337 344 343 342 343 345 342 341 345 344 345 346 346 342 337 339 342 342 344 345
314 313 314 316 318 321 315 318 321 328 337 339 337 338 336 335 333 335 336 335 336 336 336 337 336 341 344 344 345 346 341 342 341 343 344 347 347 345 341 343 345 345 344 345
311 312 316 319 318 317 320 325 331 330 327 336 335 334 332 331 334 334 334 336 335 337 337 336 334 338 339 340 343 345 346 345 345 340 335 343 347 347 343 344 344 343 341 339
311 309 316 314 320 322 319 326 325 328 331 333 333 331 330 330 335 331 334 336 337 338 340 338 338 342 341 341 343 345 346 346 346 345 342 338 346 347 348 346 346 344 334 336
317 317 322 319 319 318 324 322 327 332 325 330 332 330 329 328 330 330 332 336 338 338 339 346 345 344 344 343 343 344 345 346 345 346 346 346 347 348 348 347 346 345 343 343
315 317 319 320 322 325 323 322 328 325 323 326 328 330 330 330 330 330 330 332 336 339 342 343 346 346 346 346 345 345 345 345 345 345 347 348 348 347 348 347 346 346 345 345
318 318 318 322 321 319 320 321 320 318 321 323 325 327 328 329 330 330 330 329 333 336 342 345 347 347 347 347 347 346 345 346 346 345 347 348 348 349 348 348 345 347 347 343
314 316 317 317 316 317 318 318 318 319 318 318 323 327 329 329 328 327 330 331 332 335 338 344 348 349 348 347 347 347 346 346 348 348 348 350 350 350 349 349 350 346 337 337
313 315 315 315 315 316 316 317 319 318 318 318 322 323 328 328 328 328 328 331 332 336 336 338 347 350 350 349 348 348 347 349 349 349 350 347 347 348 350 349 347 337 338 339
314 313 317 318 316 315 316 316 316 317 317 318 321 323 324 324 326 327 329 330 330 334 336 336 339 347 350 350 349 348 348 349 349 349 349 348 350 350 348 345 337 338 338 339
Wind_Speed
4 4 5 8 6 5 3 4 6 18 8 6 11 15 18 11 20 17 26 31 32 33 24 21 25 24 24 21 20 19 17 13 13 15 18 18 19 20 18 19 16 16 14 12
6 6 10 2 3 4 4 5 9 12 6 8 3 13 11 9 12 26 27 29 32 28 28 29 27 27 25 24 23 21 18 14 11 12 14 17 18 18 17 19 20 17 14 15
6 8 4 3 2 4 4 5 5 7 6 1 3 7 7 2 10 17 29 29 30 27 26 28 29 29 28 27 25 22 18 13 11 12 15 18 18 17 20 22 21 18 16 14
6 6 7 3 5 6 6 6 5 7 1 4 4 6 5 4 7 7 18 26 27 28 29 30 31 30 31 29 25 20 18 15 11 15 17 20 22 22 22 21 19 18 16 15
9 3 5 3 6 6 9 4 5 4 3 2 2 2 8 4 8 8 15 26 30 29 32 35 33 31 32 29 19 21 19 16 14 18 18 20 21 21 22 20 19 19 16 14
7 1 5 7 5 6 4 4 3 3 3 3 3 3 9 3 6 5 5 23 31 32 34 35 32 30 32 31 21 12 22 18 16 20 21 20 21 20 22 22 21 20 17 15
6 7 6 6 5 1 4 5 4 5 5 6 3 1 9 10 9 7 8 17 30 34 30 34 36 34 33 34 34 18 20 22 20 23 23 21 21 19 23 21 21 21 18 16
1 9 2 1 7 5 5 7 5 4 3 6 2 4 6 6 15 10 9 9 18 34 33 33 34 35 36 35 36 32 20 25 23 24 24 22 23 21 22 21 20 21 20 15
3 7 4 6 5 6 2 4 4 5 3 1 3 8 10 3 8 1 5 11 21 28 37 36 35 37 37 35 36 24 27 25 25 24 25 25 25 23 24 22 20 19 21 17
3 5 5 9 3 1 5 6 2 3 2 3 5 5 6 10 11 3 6 14 19 24 32 33 35 37 39 38 36 40 27 29 25 25 26 26 25 24 24 21 20 19 17 15
0 3 7 2 3 6 2 1 6 4 4 5 2 6 7 7 10 11 9 12 19 24 27 32 34 36 37 37 37 40 37 30 28 25 27 27 27 25 25 22 19 20 22 20
3 3 3 8 4 3 2 3 5 5 4 1 3 6 4 7 9 13 19 10 9 20 22 28 32 34 37 38 36 37 40 34 29 24 27 29 26 27 28 24 21 18 18 19
3 1 4 9 5 5 6 3 4 5 2 5 5 6 4 9 11 21 18 21 6 9 17 21 26 32 36 38 33 36 37 36 29 27 27 28 29 28 29 28 24 23 21 21
3 2 6 6 5 1 4 3 2 2 2 5 5 7 8 10 10 19 29 26 15 9 16 22 23 29 33 36 35 36 32 34 34 28 27 26 27 28 28 26 24 25 23 22
4 3 4 6 6 4 7 8 7 6 6 5 6 8 9 9 9 21 28 25 20 16 14 13 18 29 32 34 34 34 33 33 31 29 24 25 23 25 26 25 23 22 22 21
2 3 1 7 9 11 12 12 9 11 12 7 7 9 5 15 16 19 22 19 22 24 16 16 15 23 32 33 33 30 32 33 31 29 29 26 23 23 26 23 21 20 19 18
5 5 2 5 4 4 7 10 15 10 7 9 8 8 4 7 11 17 22 27 28 30 20 22 18 22 30 32 33 29 30 24 27 32 29 27 26 23 23 22 20 19 18 18
3 4 3 3 4 4 7 6 8 6 2 2 4 4 6 11 27 29 15 17 23 22 24 25 22 23 27 30 32 33 35 33 32 20 25 34 31 26 21 19 17 17 15 15
4 4 1 2 3 6 8 5 5 6 5 1 4 7 11 21 17 4 14 29 26 22 15 20 20 22 25 29 31 32 35 37 27 26 28 36 34 26 26 18 19 18 13 15
5 5 3 2 3 4 4 4 12 4 4 4 5 6 10 16 5 5 40 32 22 15 12 18 17 17 19 22 27 29 30 31 37 30 28 25 35 30 22 20 19 17 8 15
4 3 3 5 5 6 3 17 10 3 3 12 9 12 12 3 6 25 30 23 18 17 15 10 14 14 15 18 21 25 26 27 26 29 30 35 28 27 21 17 18 17 13 13
3 2 3 0 3 7 11 11 4 7 23 20 23 20 18 20 23 23 27 23 17 14 10 7 13 14 15 14 18 22 23 22 23 20 22 25 24 21 20 18 15 14 13 14
3 5 2 6 5 10 16 15 17 26 25 28 28 27 24 27 26 25 27 27 19 13 11 7 11 14 14 14 15 17 20 23 21 20 20 19 20 19 18 16 15 13 12 13
4 4 4 2 4 12 27 33 24 17 22 28 26 28 27 30 28 29 25 25 21 11 10 8 10 14 14 15 15 15 18 22 19 20 20 20 21 21 18 15 13 12 12 12
7 3 4 6 12 23 26 18 16 27 29 31 27 25 24 27 27 26 23 22 18 8 7 7 5 13 17 17 15 14 15 19 19 18 18 19 19 18 18 16 13 11 11 9
9 6 3 7 18 19 25 37 31 27 28 28 24 24 20 22 25 18 20 19 19 12 6 6 6 8 16 20 19 17 16 16 19 20 19 19 20 20 17 14 14 12 10 8
Wind_Direction
26 52 244 251 194 201 238 242 261 290 255 241 223 250 265 199 218 218 211 215 218 221 227 222 218 221 218 221 222 221 220 222 235 226 212 204 197 199 201 198 199 190 185 178
16 267 249 189 191 211 222 280 284 282 289 182 149 250 269 203 217 219 219 214 220 220 229 224 217 220 215 217 220 222 224 229 240 226 210 201 192 199 203 195 188 190 186 188
177 236 105 161 268 299 247 213 274 244 337 275 3 285 260 278 230 229 229 221 219 216 213 207 210 219 214 216 220 219 224 233 234 205 191 190 191 191 188 190 189 185 185 171
243 258 233 236 249 163 298 182 251 276 156 247 139 287 280 296 281 227 219 215 214 210 208 207 209 216 215 216 219 223 224 229 219 196 188 194 188 188 192 188 187 183 179 189
240 221 197 196 226 159 238 328 299 308 194 359 307 59 272 342 293 256 220 212 212 209 203 207 211 219 216 211 217 221 222 223 213 196 186 188 189 192 192 193 187 184 187 191
245 283 173 218 269 179 262 308 37 51 83 7 268 140 287 253 239 287 235 211 212 213 213 212 213 218 219 208 197 225 221 223 212 197 190 191 191 194 198 197 193 190 191 191
330 261 243 200 300 62 97 58 334 346 2 227 275 76 240 275 271 248 228 213 213 211 215 216 217 217 218 210 200 204 220 220 211 199 196 193 196 199 196 201 200 198 201 199
193 315 183 88 183 190 190 155 164 237 235 264 293 254 264 228 298 323 244 226 206 211 215 215 219 220 218 211 203 208 211 214 210 203 200 195 192 196 201 205 213 213 208 214
191 264 266 196 174 139 238 208 188 112 5 40 268 297 302 294 312 82 251 182 197 210 215 219 220 219 218 215 208 207 216 214 211 206 201 197 197 202 203 207 217 220 220 223
249 280 240 279 190 163 177 163 59 14 197 230 294 283 239 308 313 326 235 222 212 208 212 219 217 220 222 221 213 214 217 213 210 208 204 200 197 198 199 209 212 216 214 217
257 147 286 19 206 216 70 293 51 121 139 170 205 266 217 260 286 297 276 249 234 216 211 212 216 220 223 219 215 211 213 210 213 210 208 204 203 202 199 203 209 222 221 224
351 135 282 243 282 297 172 127 133 129 229 220 161 269 244 278 287 299 297 296 257 228 222 218 220 220 219 220 218 214 213 212 215 217 211 212 209 207 206 208 214 211 209 216
327 348 354 336 352 12 51 347 118 113 90 200 146 258 290 322 332 341 323 321 282 214 206 213 215 220 218 218 216 219 216 214 212 221 218 216 216 215 215 216 216 220 225 228
139 140 187 207 229 206 292 321 326 129 158 173 228 285 312 309 311 317 321 325 277 215 204 214 229 227 221 217 210 215 212 213 214 219 222 222 219 218 220 221 223 224 227 230
99 249 227 246 252 268 249 259 237 221 233 198 244 216 256 274 292 298 308 314 292 247 205 213 232 226 215 214 208 214 219 212 210 215 222 226 226 221 221 223 225 229 233 239
13 257 208 274 267 249 253 254 231 235 241 246 252 265 222 297 309 300 317 317 296 271 233 224 230 221 218 218 220 212 218 218 205 209 223 225 230 224 221 219 220 223 230 235
185 179 118 261 315 325 296 239 234 232 198 195 203 225 357 307 311 303 316 319 305 293 259 231 223 226 224 226 224 208 210 205 199 212 225 227 226 221 218 218 221 220 226 232
191 136 152 263 23 234 245 294 278 252 214 331 312 311 309 290 302 302 326 349 332 312 278 241 234 224 227 229 225 208 208 187 194 196 224 233 230 222 208 212 219 230 242 256
161 135 203 212 208 288 305 18 16 35 291 86 307 314 319 326 319 301 7 348 338 315 278 253 251 229 239 233 225 215 212 221 207 215 207 228 230 225 211 212 222 223 244 255
73 74 121 76 224 257 260 323 321 281 282 0 331 315 330 347 2 301 337 340 342 313 283 243 233 232 228 224 222 219 217 213 208 214 185 217 229 227 215 211 217 208 230 224
352 356 212 218 231 279 294 313 318 205 281 328 315 307 317 342 306 325 344 343 350 339 321 247 210 217 224 224 221 220 220 218 219 222 219 219 217 216 214 214 217 224 230 225
194 230 239 79 239 265 6 3 34 305 317 309 312 315 313 314 322 334 347 349 340 0 339 272 214 203 218 226 225 225 220 212 208 221 218 215 212 209 205 203 208 214 210 212
268 193 210 197 239 275 303 278 303 319 305 312 303 304 307 306 313 322 333 348 348 343 356 304 225 207 213 223 222 224 220 211 206 205 198 205 205 199 202 205 202 203 205 208
270 216 221 330 275 277 297 299 291 303 326 327 323 307 299 297 303 309 322 337 344 337 336 343 250 208 205 218 216 208 218 208 211 199 197 195 195 194 200 202 199 198 196 198
216 190 228 256 280 281 283 292 306 300 302 313 315 312 300 298 296 307 311 321 345 343 323 338 286 215 199 204 197 196 202 212 202 198 194 189 187 193 193 192 193 198 194 201
206 212 207 265 265 262 279 293 296 294 293 298 305 314 307 294 295 297 299 305 332 327 335 293 316 216 201 195 187 184 192 203 201 195 193 192 187 183 188 191 193 185 187 203